Location: Nachod
(50.4170°N, 16.1670°E)
Time: 22:45:53
(UTC+02:00)

ISS - Pass Details

Date: 30 March 2019
Orbit: 408 x 410 km, 51.6° (Epoch: 24 April)

Event Time Altitude Azimuth Distance (km) Brightness Sun altitude
Rises 20:51:02 0° 285° (WNW) 2,339 1.2 -22.3°
Reaches altitude 10° 20:53:07 10° 284° (WNW) 1,475 -0.1 -22.6°
Enters shadow 20:55:27 42° 276° (W) 596 -2.7 -22.9°
